Station PORO3 - 9431647 - Port Orford, OR Image indicating link to RSS feed of recent meteorological observations for station PORO3


Conditions at PORO3 as of
(10:18 am PDT)
1718 GMT on 05/25/2024:
     

Click on the graph icon in the table below to see a time series plot of the last five days of that observation.

5-day plot - Wind Direction Wind Direction (WDIR): N ( 10 deg true )
5-day plot - Wind Speed Wind Speed (WSPD): 9.9 kts
5-day plot - Wind Gust Wind Gust (GST): 15.9 kts
5-day plot - Atmospheric Pressure Atmospheric Pressure (PRES):30.07 in
5-day plot - Air Temperature Air Temperature (ATMP): 55.4 °F
5-day plot - Water Temperature Water Temperature (WTMP): 46.8 °F
5-day plot - Wind Speed at 10 Meters Wind Speed at 10 meters (WSPD10M): 9.7 kts
5-day plot - Wind Speed at 20 Meters Wind Speed at 20 meters (WSPD20M): 11.7 kts
5-day plot -  Wind Speed, Wind Gust and Atmospheric Pressure Combined plot of Wind Speed, Gust, and Air Pressure
NOS Water Level Observation Network Water Level
Previous observations
TIME
(PDT)
5-day plot - Wind Direction
WDIR
 
5-day plot - Wind Speed
WSPD
kts
5-day plot - Wind Gust
GST
kts
5-day plot - Wave Height
WVHT
ft
5-day plot - Dominant Wave Period
DPD
sec
5-day plot - Average Wave Period
APD
sec
5-day plot - Mean Wave Direction
MWD
 
5-day plot - Atmospheric Pressure
PRES
in
5-day plot - Pressure Tendency
PTDY
in
5-day plot - Air Temperature
ATMP
°F
5-day plot - Water Temperature
WTMP
°F
5-day plot - Dew Point
DEWP
°F
5-day plot - Salinity
SAL
psu
5-day plot - Visibility
VIS
nmi
5-day plot - Tide (above MLLW)
TIDE
ft
2024-05-25 10:12 amNNE 12.0 19.0----30.07- 54.7 46.8----
2024-05-25 10:06 amNNE 8.9 14.0----30.08- 54.9 46.6----
2024-05-25 10:00 amNNE 12.0 15.0----30.08+0.05 54.3 46.6----
2024-05-25 09:54 amNNE 13.0 15.0----30.08- 54.1 46.6----
2024-05-25 09:48 amNNE 6.0 12.0----30.07- 54.5 46.6----
2024-05-25 09:42 amNNE 8.9 13.0----30.07- 53.8 46.6----
2024-05-25 09:36 amNNE 8.9 13.0----30.07- 54.0 46.6----
2024-05-25 09:30 am-------30.07- 53.8 46.4----
2024-05-25 09:24 am-------30.07- 53.4 46.4----
2024-05-25 09:18 amNNE 8.0 13.0----30.06- 53.2 46.2----
2024-05-25 09:12 amNNE 7.0 11.1----30.06- 53.1 46.2----
2024-05-25 09:06 amNNE 8.9 13.0----30.06- 52.9 46.2----
2024-05-25 09:00 amNNE 6.0 9.9----30.06+0.04 52.9 46.0----
2024-05-25 08:54 amNNE 7.0 11.1----30.06- 52.5 46.0----
2024-05-25 08:48 amNNE 6.0 11.1----30.06-- 46.0----
2024-05-25 08:42 amNNE 8.0 11.1----30.06-- 46.0----
2024-05-25 08:36 amNNE 7.0 9.9----30.06-- 46.0----
2024-05-25 08:30 amNNE 5.1 11.1----30.05- 52.3 46.0----
2024-05-25 08:24 am N 7.0 9.9----30.05- 52.0 46.0----
2024-05-25 08:18 am N 4.1 8.0----30.05- 52.0 46.0----
2024-05-25 08:12 am N 5.1 7.0----30.04- 51.4 46.0----
2024-05-25 08:06 amNNW 5.1 7.0----30.04- 51.1 46.0----
2024-05-25 08:00 am N 2.9 5.1----30.04+0.04 50.9 45.9----
2024-05-25 07:54 am N 4.1 5.1----30.04- 50.5 45.9----
2024-05-25 07:48 am N 5.1 6.0----30.04- 50.0 45.9----
2024-05-25 07:42 amNNE 5.1 6.0----30.04- 49.8 45.7----
2024-05-25 07:36 am NE 5.1 8.0----30.03- 49.6 45.7----
2024-05-25 07:30 am NE 4.1 6.0----30.03- 49.6 45.7----
2024-05-25 07:24 amNNE 5.1 6.0----30.03- 49.5 45.7----
2024-05-25 07:18 am N 4.1 5.1----30.03- 49.5 45.7----
2024-05-25 07:12 am N 4.1 5.1----30.03- 49.5 45.7----
2024-05-25 07:06 amNNE 2.9 5.1----30.03- 49.3 45.7----
2024-05-25 07:00 am N 2.9 5.1----30.03+0.03- 45.7----
2024-05-25 06:54 am N 2.9 5.1----30.03-- 45.7----
2024-05-25 06:48 am N 4.1 5.1----30.03-- 45.7----
2024-05-25 06:42 am N 4.1 7.0----30.03-- 45.7----
2024-05-25 06:36 am N 6.0 8.0----30.03-- 45.7----
2024-05-25 06:30 am N 5.1 9.9----30.02- 49.3 45.7----
2024-05-25 06:24 am N 7.0 9.9----30.02- 49.3 45.7----
2024-05-25 06:18 am N 6.0 9.9----30.02- 49.3 45.7----
2024-05-25 06:12 amNNE 7.0 11.1----30.02- 49.3 45.7----
2024-05-25 06:06 am N 8.9 12.0----30.02- 49.6 45.7----
2024-05-25 06:00 am N 5.1 8.0----30.02+0.02 50.0 45.5----
2024-05-25 05:54 am N 2.9 7.0----30.02- 50.2 45.5----
2024-05-25 05:48 amNNW 4.1 6.0----30.01-- 45.5----
2024-05-25 05:42 am N 5.1 6.0----30.01-- 45.5----
2024-05-25 05:36 am N 4.1 6.0----30.01-- 45.7----
2024-05-25 05:30 am N 4.1 5.1----30.01- 50.4 45.5----
2024-05-25 05:24 am N 5.1 7.0----30.01- 50.4 45.7----
2024-05-25 05:18 am N 4.1 7.0----30.01- 50.5 45.7----
2024-05-25 05:12 am N 5.1 7.0----30.01- 50.5 45.7----
2024-05-25 05:06 am N 4.1 8.9----30.01- 50.7 45.7----
2024-05-25 05:00 amNNE 7.0 9.9----30.01+0.00 50.7 45.7----
2024-05-25 04:54 amNNE 5.1 8.9----30.00- 50.7 45.7----
2024-05-25 04:48 am N 5.1 7.0----30.00- 50.7 45.7----
2024-05-25 04:42 am N 5.1 6.0----30.00- 50.5 45.7----
2024-05-25 04:36 amNNE 5.1 8.0----30.00- 50.4 45.7----
2024-05-25 04:30 am N 2.9 5.1----30.00- 50.4 45.7----
2024-05-25 04:24 amNNE 2.9 5.1----30.00- 50.4 45.7----
2024-05-25 04:18 amNNE 2.9 6.0----30.00- 50.5 45.7----
2024-05-25 04:12 am N 4.1 5.1----30.00- 50.5 45.7----
2024-05-25 04:06 am N 4.1 7.0----30.00- 50.7 45.7----
2024-05-25 04:00 am N 5.1 7.0----30.00+0.00 50.7 45.5----
2024-05-25 03:54 am N 4.1 7.0----30.00- 50.7 45.5----
2024-05-25 03:48 amNNE 5.1 8.0----30.00- 50.9 45.5----
2024-05-25 03:42 amNNE 6.0 8.0----30.00- 50.7 45.5----
2024-05-25 03:36 amNNE 5.1 8.0----30.00- 50.9 45.5----
2024-05-25 03:30 am-------30.00- 50.9 45.3----
2024-05-25 03:24 am-------30.00- 51.1 45.3----
2024-05-25 03:18 amNNE 6.0 9.9----30.00- 50.9 45.3----
2024-05-25 03:12 amNNE 6.0 8.9----30.00- 50.9 45.3----
2024-05-25 03:06 amNNE 7.0 9.9----30.00- 50.9 45.3----
2024-05-25 03:00 amNNE 7.0 8.9----30.00+0.00- 45.3----
2024-05-25 02:54 amNNE 5.1 7.0----30.00-- 45.3----
2024-05-25 02:48 amNNE 4.1 6.0----30.00- 50.5 45.3----
2024-05-25 02:42 am N 4.1 7.0----30.00- 50.5 45.3----
2024-05-25 02:36 am N 4.1 5.1----30.00- 50.5 45.3----
2024-05-25 02:30 am N 2.9 6.0------ 50.5 45.5----
2024-05-25 02:24 am N 4.1 5.1------ 50.4 45.5----
2024-05-25 02:18 am N 2.9 5.1----30.00- 50.4 45.5----
2024-05-25 02:12 amNNE 4.1 6.0----30.00- 50.4 45.5----
2024-05-25 02:06 am N 4.1 6.0----30.00- 50.5 45.5----
2024-05-25 02:00 amNNE 4.1 6.0----30.00+0.01- 45.5----
2024-05-25 01:54 am N 4.1 7.0----30.00-- 45.5----
2024-05-25 01:48 am N 5.1 7.0----30.00-- 45.5----
2024-05-25 01:42 amNNE 4.1 7.0----30.00-- 45.5----
2024-05-25 01:36 amNNE 5.1 8.9----30.00-- 45.5----
2024-05-25 01:30 amNNE 6.0 9.9----30.00- 50.4-----
2024-05-25 01:24 amNNE 6.0 8.9----30.00- 50.4-----
2024-05-25 01:18 amNNE 6.0 8.9----30.00-------
2024-05-25 01:12 amNNE 6.0 8.9----30.00-------
2024-05-25 01:06 amNNE 6.0 8.9----30.00-------
2024-05-25 01:00 amNNE 7.0 8.9----30.00+0.01 49.8 45.5----
2024-05-25 12:54 amNNE 8.0 11.1----30.00- 49.8 45.5----
2024-05-25 12:48 amNNE 7.0 9.9----30.00- 49.8 45.5----
2024-05-25 12:42 amNNE 8.0 11.1----30.00- 49.8 45.5----
2024-05-25 12:36 amNNE 8.0 11.1----30.00- 49.8 45.3----
2024-05-25 12:30 amNNE 8.9 13.0----30.00- 49.8 45.3----
2024-05-25 12:24 amNNE 8.9 15.0----30.00- 50.0 45.3----
2024-05-25 12:18 amNNE 8.9 15.0----30.00- 50.2 45.3----
2024-05-25 12:12 amNNE 8.9 13.0----30.00- 50.2 45.3----
2024-05-25 12:06 amNNE 7.0 11.1----30.00- 50.4 45.1----
2024-05-25 12:00 am N 6.0 9.9----29.99+0.03- 45.1----
2024-05-24 11:54 pm N 5.1 9.9----29.99-- 45.1----
2024-05-24 11:48 pm N 6.0 12.0----29.99- 50.5 45.1----
2024-05-24 11:42 pm N 9.9 15.0----29.99- 50.5 45.1----
2024-05-24 11:36 pm N 6.0 12.0----29.99- 50.5 45.1----
2024-05-24 11:30 pmNNE 8.9 12.0----29.99- 50.5 45.1----
2024-05-24 11:24 pm N 8.0 14.0----29.99- 50.7 45.1----
2024-05-24 11:18 pm N 8.0 12.0----29.99- 50.9 45.1----
2024-05-24 11:12 pm N 8.0 13.0----29.99- 50.9 45.1----
2024-05-24 11:06 pm N 7.0 8.9----29.99- 51.1 45.0----
2024-05-24 11:00 pm N 5.1 14.0----29.99+0.04 51.1 45.0----
2024-05-24 10:54 pmNNE 6.0 12.0----29.99- 51.1 45.0----
2024-05-24 10:48 pm N 5.1 11.1----29.99- 51.3 45.0----
2024-05-24 10:42 pmNNE 7.0 15.9----29.99- 51.3 45.0----
2024-05-24 10:36 pm N 7.0 8.9----29.99- 51.6 44.8----
2024-05-24 10:30 pm N 6.0 15.0----29.99- 51.6 44.8----
2024-05-24 10:24 pmNNE 8.9 12.0----29.99- 51.6 44.8----
2024-05-24 10:18 pm N 7.0 11.1----29.98- 51.8 44.8----
2024-05-24 10:12 pm N 8.0 13.0----29.98- 52.0 44.8----
2024-05-24 10:06 pm N 7.0 12.0----29.98- 52.2 44.8----
2024-05-24 10:00 pm N 7.0 9.9----29.98+0.03 52.2 44.8----
2024-05-24 09:54 pm N 4.1 8.0----29.98- 52.3 44.8----
2024-05-24 09:48 pm N 5.1 9.9----29.98- 52.5 44.8----
2024-05-24 09:42 pm N 5.1 12.0----29.98- 52.5 44.8----
2024-05-24 09:36 pm N 6.0 12.0----29.98- 52.7 44.8----
2024-05-24 09:30 pm N 6.0 8.9----29.97- 52.7 44.8----
2024-05-24 09:24 pm N 6.0 9.9----29.97- 52.9 44.8----
2024-05-24 09:18 pm N 4.1 11.1----29.97- 52.9 44.8----
2024-05-24 09:12 pm N 6.0 12.0----29.97- 52.9 44.8----
2024-05-24 09:06 pm N 5.1 11.1----29.97- 53.1 44.8----
2024-05-24 09:00 pm N 4.1 9.9----29.97+0.02 53.1 45.0----
2024-05-24 08:54 pm N 7.0 13.0----29.97- 53.1 45.0----
2024-05-24 08:48 pm N 6.0 14.0----29.96- 53.2 45.0----
2024-05-24 08:42 pm N 7.0 13.0----29.96- 53.4 45.0----
2024-05-24 08:36 pm N 5.1 8.9----29.96- 53.6 45.0----
2024-05-24 08:30 pm N 7.0 11.1----29.96- 53.6 45.0----
2024-05-24 08:24 pm N 7.0 9.9----29.96- 53.6 45.0----
2024-05-24 08:18 pm N 8.9 14.0----29.96- 53.8 45.0----
2024-05-24 08:12 pm N 8.9 13.0----29.96- 54.1 45.0----
2024-05-24 08:06 pm N 8.0 12.0----29.96- 54.3 45.0----
2024-05-24 08:00 pm N 8.0 12.0----29.96+0.00 54.3 45.0----
2024-05-24 07:54 pm N 8.9 14.0----29.96- 54.5 45.1----
2024-05-24 07:48 pm N 6.0 14.0----29.96- 55.0 45.1----
2024-05-24 07:42 pm N 8.9 14.0----29.95- 55.4 45.1----
2024-05-24 07:36 pm N 7.0 14.0----29.95- 55.8 45.3----
2024-05-24 07:30 pm N 5.1 8.0----29.95- 55.9 45.3----
2024-05-24 07:24 pm N 4.1 7.0----29.95- 55.6 45.3----
2024-05-24 07:18 pm NW 4.1 6.0----29.95- 55.4 45.5----
2024-05-24 07:12 pm NW 5.1 8.0----29.95- 55.0 45.5----
2024-05-24 07:06 pmNNW 7.0 9.9----29.95- 54.9 45.5----
2024-05-24 07:00 pm N 6.0 11.1----29.95-0.01 54.9 45.5----
2024-05-24 06:54 pm N 8.0 12.0----29.95- 55.2 45.5----
2024-05-24 06:48 pm N 7.0 12.0----29.95- 55.8 45.7----
2024-05-24 06:42 pm N 8.9 13.0----29.95- 56.1 45.7----
2024-05-24 06:36 pm N 6.0 13.0----29.95- 56.7 45.7----
2024-05-24 06:30 pm N 7.0 12.0----29.95- 56.7 45.7----
2024-05-24 06:24 pmNNW 8.0 12.0----29.95- 57.2 45.7----
2024-05-24 06:18 pmNNW 8.0 11.1----29.95- 58.1 45.7----
2024-05-24 06:12 pmNNW 8.0 9.9----29.95- 58.5 45.7----
2024-05-24 06:06 pmNNW 5.1 9.9----29.95- 57.9 45.5----
2024-05-24 06:00 pm NW 6.0 12.0----29.95-0.02 57.0 45.5----
2024-05-24 05:54 pm NW 8.9 12.0----29.95- 57.0 45.5----
2024-05-24 05:48 pmNNW 7.0 9.9----29.95- 57.2 45.5----
2024-05-24 05:42 pm NW 7.0 11.1----29.95- 57.4 45.7----
2024-05-24 05:36 pm NW 7.0 12.0----29.96- 57.6 45.7----
2024-05-24 05:30 pm NW 5.1 13.0----29.96- 57.7 45.5----
2024-05-24 05:24 pmNNW 8.0 13.0----29.96- 57.2 45.5----
2024-05-24 05:18 pmNNW 8.0 15.0----29.96- 57.0 45.7----
2024-05-24 05:12 pmNNW 9.9 13.0----29.96- 56.8 45.7----
2024-05-24 05:06 pmNNW 8.9 15.0----29.96- 57.0 45.7----
2024-05-24 05:00 pmNNW 8.9 14.0----29.96+0.00 57.0 45.7----
2024-05-24 04:54 pmNNW 8.9 14.0----29.96- 57.0 45.7----
2024-05-24 04:48 pmNNW 9.9 13.0----29.96- 56.5 45.5----
2024-05-24 04:42 pmNNW 7.0 13.0----29.96- 56.7 45.5----
2024-05-24 04:36 pm NW 8.9 15.0----29.96- 56.8 45.5----
2024-05-24 04:30 pm NW 8.9 14.0----29.96- 57.0 45.5----
2024-05-24 04:24 pm NW 8.9 14.0----29.96- 57.0 45.5----
2024-05-24 04:18 pmNNW 8.0 15.9----29.96- 56.8 45.5----
2024-05-24 04:12 pmNNW 11.1 17.1----29.96- 56.7 45.5----
2024-05-24 04:06 pmNNW 9.9 15.9----29.96- 57.0 45.3----
2024-05-24 04:00 pmNNW 7.0 13.0----29.96+0.01 57.2 45.3----
2024-05-24 03:54 pmNNW 6.0 12.0----29.96- 57.0 45.1----
2024-05-24 03:48 pm NW 8.0 13.0----29.96- 56.5 45.1----
2024-05-24 03:42 pmNNW 11.1 15.9----29.96- 55.8 45.1----
2024-05-24 03:36 pmNNW 8.0 17.1----29.96- 55.9 45.1----
2024-05-24 03:30 pmNNW 9.9 14.0----29.96- 55.8 45.1----
2024-05-24 03:24 pmNNW 9.9 15.9----29.96- 55.6 45.1----
2024-05-24 03:18 pmNNW 11.1 15.9----29.96-- 45.3----
2024-05-24 03:12 pmNNW 8.9 15.0----29.96-- 45.3----
2024-05-24 03:06 pm NW 8.9 18.1----29.96-- 45.5----
2024-05-24 03:00 pmNNW 12.0 17.1----29.96+0.02 55.6 45.5----
2024-05-24 02:54 pm NW 9.9 15.9----29.96- 55.6 45.5----
2024-05-24 02:48 pmNNW 8.9 18.1----29.96- 55.6 45.3----
2024-05-24 02:42 pmNNW 9.9 15.0----29.96- 55.6 45.3----
2024-05-24 02:36 pmNNW 8.9 14.0----29.96- 55.8 45.3----
2024-05-24 02:30 pmNNW 9.9 17.1----29.96- 55.2 45.3----
2024-05-24 02:24 pmNNW 9.9 17.1----29.96- 55.2 45.7----
2024-05-24 02:18 pmNNW 8.0 17.1----29.96- 55.6 45.7----
2024-05-24 02:12 pmNNW 12.0 17.1----29.96- 55.6 45.5----
2024-05-24 02:06 pmNNW 8.9 15.0----29.96- 56.1 45.5----
2024-05-24 02:00 pmNNW 13.0 20.0----29.96+0.00 56.5 45.5----
2024-05-24 01:54 pmNNW 8.0 15.0----29.96- 58.1 45.5----
2024-05-24 01:48 pmNNW 8.9 13.0----29.96- 57.7 45.5----
2024-05-24 01:42 pm N 9.9 15.9----29.96- 57.6 45.3----
2024-05-24 01:36 pmNNW 8.9 15.0----29.96- 57.0 45.5----
2024-05-24 01:30 pmNNW 8.9 15.9----29.96- 57.0 45.5----
2024-05-24 01:24 pmNNW 11.1 15.9----29.95- 55.9 45.5----
2024-05-24 01:18 pmNNW 11.1 17.1----29.95- 55.6 45.3----
2024-05-24 01:12 pmNNW 12.0 18.1----29.95- 55.4 45.3----
2024-05-24 01:06 pmNNW 12.0 19.0----29.95- 55.2 45.3----
2024-05-24 01:00 pmNNW 12.0 15.9----29.95-0.01 55.4 45.3----
2024-05-24 12:54 pmNNW 8.9 15.9----29.95- 55.8 45.5----
2024-05-24 12:48 pmNNW 8.9 14.0----29.95- 55.2 45.5----
2024-05-24 12:42 pm NW 8.9 17.1----29.95- 54.7 45.5----
2024-05-24 12:36 pmNNW 11.1 19.0----29.95- 54.0 45.5----
2024-05-24 12:30 pm NW 12.0 18.1----29.95- 53.8 45.7----
2024-05-24 12:24 pmNNW 9.9 15.9----29.95- 54.3 45.9----
2024-05-24 12:18 pm NW 9.9 14.0----29.95- 55.6 45.9----
2024-05-24 12:12 pmNNW 11.1 15.0----29.94- 57.6 45.9----
2024-05-24 12:06 pmNNW 11.1 14.0----29.94- 58.1 45.9----
2024-05-24 12:00 pmNNW 9.9 14.0----29.95-0.02 58.1 45.9----
2024-05-24 11:54 am NW 12.0 15.0----29.95- 57.4 46.0----
2024-05-24 11:48 amNNW 12.0 15.0----29.95- 56.8 46.2----
2024-05-24 11:42 amNNW 11.1 15.0----29.95- 56.1 46.0----
2024-05-24 11:36 amNNW 8.9 15.9----29.96- 55.9 46.0----
2024-05-24 11:30 am NW 12.0 18.1----29.95- 55.9 46.0----
2024-05-24 11:24 amNNW 11.1 15.0----29.96- 56.8 45.9----
2024-05-24 11:18 am NW 8.9 15.9----29.96- 56.8 45.9----
2024-05-24 11:12 am NW 12.0 17.1----29.96- 55.9 45.9----
2024-05-24 11:06 am NW 11.1 19.0----29.96- 56.5 45.7----
2024-05-24 11:00 amNNW 8.0 13.0----29.96-0.01 57.2 45.7----
2024-05-24 10:54 am N 5.1 8.9----29.96- 55.8 45.7----